Погода в Ташбулатове

Россия / Республика Башкортостан     53°37′17″N   58°42′04″E
темп.,
°C
ветер,
м/с
пор.,
м/с
влажн.,
%
обл.,
%
осадки,
мм/ч
давл.,
гПа
погр.,
м
21 января, пт
пт2123:00−21зсз22975 0.0 102610
02:00−21зсз21955 0.0 102610
05:00−22зсз11924 0.0 10279
08:00−21сз11914 0.0 10279
11:00−18зсз11915 0.0 102712
14:00−11всв00864 0.0 102628
17:00−16зсз11925 0.0 10279
20:00−18зсз119685 0.0 10299
22 января, сб
сб2223:00−17зсз1196100 0.0 10299
02:00−18сз119648 0.0 10299
05:00−19сз119753 0.0 10309
08:00−19сз119697 0.0 10309
11:00−17ссз119528 0.0 103111
14:00−13всв00916 0.0 103145
17:00−17ссз119796 0.0 10329
20:00−20сз219861 0.0 10349
23 января, вс
вс2323:00−21сз119615 0.0 10359
02:00−22сз119283 0.0 10369
05:00−21сз218979 0.0 10379
08:00−22сз11845 0.0 10389
11:00−18ссз118399 0.0 103915
14:00−13св117678 0.0 103835
17:00−16с118284 0.0 10409
20:00−19сз21817 0.0 10429
24 января, пн
пн2423:00−19ссз218388 0.0 10439
02:00−20ссз11837 0.0 10449
05:00−20сз118556 0.0 10459
08:00−20сз118796 0.0 10459
11:00−16з118685 0.0 104510
14:00−11ю2278100 0.0 104360
17:00−14юз2287100 0.0 104310
20:00−15зюз118499 0.0 10439
25 января, вт
вт2523:00−15юз2285100 0.0 104219
02:00−14зюз1185100 0.0 104012
05:00−12з1184100 0.0 103811
08:00−10з2283100 0.0 103718
11:00−10сз1184100 0.0 103713
14:00−7з1185100 0.0 103515
17:00−10з1187100 0.0 103510
20:00−13зсз2189100 0.0 103610